Dewpoint
23 24 23 24 24 30 50 48 51 54 57 54 53 55 56 56 57 57 57 49 52 53 58 63 63 63 64 64 65 63 66 66 65 67 67 66 65 66 69 68 69 70 69 69
24 24 25 24 24 34 49 48 50 55 56 55 54 53 56 56 56 58 59 55 51 53 60 60 60 63 64 64 65 64 66 66 67 66 68 66 67 67 69 70 70 70 69 70
24 24 25 25 24 42 47 42 50 51 55 55 53 51 53 55 57 57 58 59 52 56 59 59 59 61 64 64 64 65 66 66 68 67 68 68 68 68 68 68 68 68 69 70
21 23 21 23 23 42 45 51 51 52 50 46 52 43 50 51 54 55 57 58 58 57 59 59 59 61 64 64 65 66 67 68 68 68 66 66 65 64 66 67 68 68 69 70
12 13 17 18 17 44 50 52 51 51 49 49 49 46 47 54 51 54 55 57 59 58 59 59 58 62 64 65 66 66 68 68 68 67 66 65 65 66 67 68 68 69 70 69
16 13 11 22 34 46 53 51 51 51 48 42 47 47 45 49 49 52 55 57 58 58 58 58 59 61 64 65 66 66 68 67 67 67 68 66 66 66 67 68 68 68 69 70
15 10 37 52 51 53 51 45 41 40 42 40 49 48 45 50 51 52 53 56 57 59 58 58 60 62 64 65 66 67 68 67 67 66 68 67 67 66 67 68 68 68 68 68
17 9 27 44 47 45 46 41 35 29 36 40 49 42 42 50 50 52 52 56 58 59 58 58 60 62 63 64 66 67 67 67 68 68 67 68 67 65 68 68 68 68 67 68
19 19 22 31 41 43 41 39 41 41 44 39 45 47 50 51 52 52 52 56 57 60 59 58 60 62 64 64 66 67 67 68 68 68 68 68 67 65 68 69 69 67 69 70
22 21 24 23 30 41 35 36 35 41 35 34 42 41 39 42 47 51 51 53 54 57 59 58 59 62 63 65 66 67 68 67 67 68 69 68 68 69 69 70 67 67 70 70
26 23 21 22 21 21 19 19 20 35 38 35 37 40 46 44 50 51 51 52 52 54 58 58 60 61 63 65 66 68 68 68 67 68 70 68 68 69 70 69 67 67 69 66
26 24 22 19 25 29 21 20 18 16 14 36 35 34 46 47 53 53 52 50 51 53 58 59 60 61 62 63 64 68 68 69 67 68 69 68 68 70 69 69 70 70 68 67
25 25 22 23 25 28 30 30 30 24 20 18 22 17 51 50 52 53 54 54 51 54 58 60 61 61 62 63 63 68 68 69 68 69 69 68 68 68 68 68 69 70 68 66
26 24 23 22 25 27 28 30 38 35 36 37 29 34 48 50 50 51 52 56 56 53 57 57 60 62 63 63 65 67 69 69 68 69 69 68 68 69 68 69 69 70 69 69
29 26 29 30 32 36 36 37 41 41 43 42 44 47 51 53 52 57 61 59 57 57 57 57 60 64 65 65 66 67 67 67 67 66 66 68 68 68 68 69 69 69 70 70
32 24 30 31 33 36 37 39 43 43 45 46 49 48 52 54 55 58 61 60 62 59 58 61 62 64 65 66 66 65 65 66 67 65 66 68 68 69 68 68 69 69 69 69
27 27 29 27 31 31 33 38 42 44 49 50 48 53 50 48 55 56 57 59 62 62 63 64 64 64 65 66 68 66 65 68 67 66 67 67 68 67 67 68 68 68 68 67
28 30 32 27 26 25 38 40 41 45 48 50 50 54 54 55 59 61 61 60 59 60 61 61 61 65 65 66 68 68 68 68 67 67 68 67 67 66 66 67 67 68 67 64
33 32 29 30 30 36 39 40 40 41 44 51 48 50 50 50 57 58 59 59 58 58 58 58 60 61 67 67 68 67 67 67 67 67 66 66 66 65 66 64 62 60 62 60
34 35 30 29 29 25 38 41 43 43 39 48 49 49 49 47 43 54 56 56 56 56 57 57 58 58 60 66 67 66 65 66 66 66 66 66 65 65 65 63 61 59 57 53
27 32 29 34 33 38 41 43 45 34 37 45 51 52 51 48 54 56 56 54 55 55 55 56 56 56 57 60 63 62 61 62 63 65 65 65 65 65 65 64 61 59 57 54
25 26 32 34 32 28 43 43 39 42 46 47 54 54 56 57 56 54 54 54 54 54 54 55 55 55 57 58 59 58 58 59 61 62 62 63 64 63 62 61 59 57 53 49
29 33 34 34 31 42 46 42 43 46 49 52 54 56 58 57 56 54 53 53 53 53 54 54 54 54 56 56 57 56 57 59 59 59 57 56 56 55 58 59 58 57 54 52
36 37 36 36 36 40 45 45 44 45 52 54 54 51 55 56 55 53 52 51 52 53 53 54 54 53 53 55 56 56 56 57 56 52 51 49 48 47 46 43 44 46 50 55
37 37 36 39 43 43 44 46 43 44 54 56 56 56 56 55 54 53 51 51 51 51 52 52 52 52 52 53 54 54 55 55 54 51 48 45 42 39 37 37 40 38 38 41
37 34 32 36 41 43 42 41 41 42 52 55 55 56 56 55 54 53 52 52 52 51 52 51 50 51 52 53 53 53 54 54 54 53 52 48 46 42 40 38 37 37 36 35
Wind_Speed
4 1 9 15 7 2 4 5 9 11 11 9 4 16 15 9 4 6 4 18 24 25 25 29 29 23 22 18 17 20 17 15 12 6 9 9 11 8 8 9 7 8 10 9
4 12 15 9 9 10 8 9 9 6 11 1 7 11 18 14 4 5 3 2 27 21 27 26 25 22 24 25 20 24 19 16 11 9 5 5 9 5 6 5 6 5 10 11
11 12 13 11 13 11 6 13 14 9 10 1 7 6 8 10 7 5 2 6 13 30 32 28 25 23 21 24 22 25 20 16 11 9 7 6 5 5 6 6 7 6 8 9
12 21 15 14 18 11 5 8 18 12 14 5 8 3 9 16 10 7 6 2 5 17 29 27 23 25 24 23 22 23 22 18 13 12 10 14 12 12 8 10 7 9 8 8
10 13 12 14 25 14 8 13 16 9 4 2 5 1 3 8 18 14 15 10 6 3 27 28 26 26 23 23 23 23 22 19 16 13 11 10 11 6 5 8 10 8 7 8
19 14 4 10 13 23 24 20 18 8 2 1 3 5 5 6 13 20 17 13 10 5 21 25 24 24 22 20 20 19 21 19 17 14 11 13 13 8 6 8 14 11 6 4
10 11 9 26 27 12 23 13 5 1 3 3 4 6 13 7 11 20 24 20 16 11 13 19 25 22 22 23 21 20 22 20 20 17 13 12 12 11 9 11 12 9 7 5
7 5 16 12 20 18 17 12 10 7 5 5 5 3 10 19 21 23 21 21 12 14 14 17 27 24 25 24 23 20 22 23 19 20 19 16 13 12 10 11 9 9 9 8
3 4 4 15 11 20 7 12 9 8 2 3 4 9 13 9 8 6 20 24 21 19 16 19 21 25 26 25 24 23 21 20 20 19 18 16 14 12 12 10 9 8 8 8
2 3 3 16 12 12 12 11 4 2 6 4 4 6 8 8 14 17 22 25 24 19 13 16 24 23 25 26 24 21 23 25 25 20 18 18 16 14 11 10 12 12 7 6
9 4 10 4 1 15 3 2 5 5 6 6 6 9 13 21 17 19 23 25 26 21 20 21 20 22 23 23 22 23 22 21 22 22 19 18 18 15 12 11 11 13 8 9
11 3 4 6 8 8 5 5 4 2 4 1 4 8 5 19 16 17 24 28 25 25 21 24 24 23 23 22 21 23 20 20 21 19 17 20 18 16 16 14 13 12 11 8
10 7 6 6 8 11 8 10 8 4 4 3 2 8 8 13 14 16 19 21 29 29 25 25 21 24 22 22 20 19 20 20 17 17 19 19 20 18 17 16 13 12 11 11
5 4 4 4 6 5 13 17 16 11 7 9 5 17 6 12 16 8 7 12 25 28 30 29 25 18 18 22 25 25 21 18 16 16 18 21 17 15 13 11 11 12 13 12
4 6 7 8 14 25 23 18 18 19 5 4 17 10 18 19 4 7 9 3 17 19 21 21 23 22 21 22 22 18 13 10 9 14 9 11 8 6 5 7 5 6 12 13
4 3 4 5 11 23 18 19 18 13 15 6 11 8 20 16 19 19 9 16 15 16 12 14 22 22 23 21 24 24 19 9 9 10 12 6 7 5 5 8 7 4 7 7
3 2 3 1 7 4 9 11 15 14 14 6 14 8 14 17 16 9 11 14 13 17 12 9 6 14 21 21 20 20 20 16 18 16 7 5 5 4 1 5 4 7 6 12
3 2 2 1 4 2 6 2 8 19 14 11 8 11 11 11 12 17 14 16 16 14 12 13 13 7 7 9 11 16 15 17 17 17 16 11 12 10 7 4 3 2 11 17
4 6 4 2 2 1 3 3 2 1 6 8 11 8 7 13 6 15 14 15 14 13 12 12 12 10 3 14 17 16 14 13 15 19 16 15 16 15 11 11 12 11 9 15
6 8 5 3 3 4 3 6 3 5 3 2 9 4 6 11 11 4 8 9 12 11 9 9 9 10 10 9 19 13 11 12 16 16 15 14 13 12 13 15 16 15 19 17
4 5 5 6 2 1 5 4 0 6 2 3 5 4 3 3 3 9 6 6 7 7 7 9 14 14 14 12 16 18 14 13 10 15 15 12 13 13 12 11 13 16 17 14
3 4 2 3 2 1 2 1 4 3 6 6 2 4 7 12 13 9 6 7 6 7 7 10 14 15 13 13 11 16 15 8 10 12 14 13 11 10 12 14 11 12 16 19
1 5 6 5 4 3 1 8 7 5 7 3 5 5 12 14 7 7 6 5 7 7 5 8 15 15 13 12 11 16 8 12 14 14 14 14 15 13 10 10 11 12 12 13
2 7 4 5 4 5 4 1 8 11 15 11 9 5 6 9 11 10 9 7 6 5 7 7 10 17 14 12 13 13 12 13 16 18 15 13 15 15 13 11 9 9 8 10
6 6 10 2 3 7 2 7 8 9 16 15 8 6 9 12 9 10 11 11 10 9 7 8 11 13 15 12 13 11 12 15 16 17 15 14 15 15 15 15 12 10 7 3
4 6 8 6 16 10 13 7 8 7 14 16 16 10 9 10 11 12 11 11 9 9 8 11 11 11 10 12 10 8 7 8 11 13 11 12 14 14 14 16 15 14 11 14
Wind_Direction
212 188 224 218 214 249 133 79 178 167 157 165 227 253 277 339 13 289 316 163 154 159 146 155 155 151 150 163 159 152 157 162 148 129 134 148 155 161 184 172 156 142 138 149
300 226 235 220 243 211 119 124 161 115 154 278 205 253 269 290 256 233 3 218 161 133 145 150 152 151 160 162 158 155 167 164 159 157 146 164 161 172 151 153 156 172 151 157
215 224 224 218 233 184 151 159 180 153 163 107 158 258 235 270 181 231 275 306 182 146 154 157 157 156 153 155 160 157 167 160 162 157 135 121 92 97 140 189 171 182 154 146
243 253 238 221 234 190 154 135 123 146 158 214 191 242 226 252 233 219 231 246 193 161 155 158 158 156 160 164 165 164 161 158 158 159 155 166 172 170 193 191 194 185 168 169
238 245 218 219 236 158 157 160 144 149 156 83 231 236 213 185 232 230 230 216 215 168 163 162 168 165 163 164 173 165 164 162 150 158 170 166 172 188 202 202 203 205 197 188
255 256 231 244 163 142 132 93 57 71 63 242 261 208 272 193 216 222 216 209 222 205 185 166 170 166 164 165 174 166 166 172 161 170 175 191 186 186 212 209 204 207 203 182
330 267 109 105 90 102 124 110 79 329 227 233 317 187 265 292 254 224 209 191 214 222 186 160 169 172 167 171 176 173 170 180 174 174 181 175 183 191 201 194 187 200 210 210
270 298 139 183 153 171 167 157 150 229 184 158 215 112 280 228 297 265 207 184 203 236 209 160 178 170 177 179 176 181 177 178 181 179 182 185 187 193 193 184 193 208 209 220
313 296 327 186 152 148 189 212 165 108 19 146 158 242 281 242 302 194 188 160 194 226 220 179 176 176 181 184 184 183 182 180 181 184 183 191 188 187 200 198 189 202 229 225
321 319 321 315 138 215 162 167 128 160 181 205 227 275 269 209 218 177 180 178 190 210 216 213 178 182 184 184 184 183 184 186 185 188 192 189 192 190 197 183 195 198 210 182
32 61 321 2 250 195 191 222 83 125 155 173 178 255 220 219 182 183 175 181 192 206 211 215 189 182 179 178 181 185 191 186 186 189 193 194 193 201 196 197 199 197 182 183
358 98 339 323 325 40 66 35 59 203 251 159 181 262 218 201 184 174 188 191 197 199 203 202 201 178 175 175 176 187 188 187 189 195 192 196 199 196 200 197 206 204 194 200
360 17 8 4 359 14 46 3 46 141 77 86 267 280 14 146 178 187 189 200 197 197 183 183 189 194 181 166 173 176 188 193 179 190 196 201 202 202 208 210 206 207 200 194
62 72 70 25 298 290 10 15 59 77 51 317 267 315 265 173 182 199 211 208 207 198 182 176 187 188 168 164 173 181 186 182 175 186 202 204 204 207 213 220 219 214 213 204
69 48 12 42 64 72 51 37 61 64 37 57 308 341 12 6 1 23 313 273 188 178 188 181 174 172 166 169 166 157 143 122 136 154 171 191 173 171 196 195 181 192 207 216
27 21 14 56 83 77 53 50 55 56 15 25 29 37 2 31 35 26 15 107 95 151 170 171 172 169 169 170 166 173 170 191 173 179 165 147 100 67 240 229 206 187 113 118
24 79 25 25 332 100 34 11 70 61 33 27 38 345 29 38 41 17 13 36 78 98 106 106 154 180 159 153 170 180 177 177 177 172 183 170 126 113 222 280 278 253 184 132
92 55 87 289 4 53 181 346 81 73 37 37 50 26 33 44 39 42 57 76 64 57 62 69 49 87 148 141 145 148 159 184 180 166 179 163 138 151 168 133 63 283 153 138
43 111 83 92 100 92 147 322 338 115 54 23 32 15 30 15 118 53 32 58 67 65 47 39 50 17 160 149 151 157 176 182 169 156 151 148 147 144 129 113 95 64 100 111
70 67 120 112 157 217 178 243 287 321 273 275 70 345 342 29 26 35 29 47 51 54 61 64 41 42 53 141 137 137 141 151 146 139 137 145 144 148 137 123 114 111 100 84
38 18 100 91 136 199 226 248 147 166 242 258 191 231 189 96 140 138 115 80 98 97 73 74 68 55 33 32 126 128 121 118 109 122 128 138 148 158 157 133 134 130 124 118
152 129 131 102 131 263 155 290 120 235 350 293 159 179 111 111 123 129 112 94 71 62 76 85 78 64 44 48 81 100 93 84 94 109 106 109 105 115 131 129 134 133 132 128
331 182 175 171 179 211 231 117 135 135 95 69 109 95 134 135 140 136 125 100 84 87 80 87 97 87 72 71 89 98 89 100 100 89 89 95 95 81 78 112 129 132 133 132
211 173 134 137 196 196 99 155 139 104 124 134 146 158 119 132 129 127 129 127 112 100 99 102 112 102 92 90 91 98 106 99 94 96 90 84 83 85 73 70 75 97 108 131
200 157 145 84 101 98 63 267 144 119 123 121 145 149 125 123 124 140 136 138 139 140 130 123 93 100 111 106 99 101 104 106 106 103 103 100 99 98 92 75 59 70 55 85
194 174 176 189 186 162 184 173 106 133 142 141 137 147 148 147 149 144 147 154 156 153 146 122 118 124 123 116 116 118 117 117 122 124 131 127 125 118 113 109 90 50 60 76